Left ArrowRight Arrow

Hourly Observations for February 14, 2021

Temp ( °F °C ) Dew Point ( °F °C ) Humidity (%) Winds ( mph kmh ) Pressure ( in mb ) Visibility ( mi km ) Precip ( " mm )
12:55 am 00:55 Clear -5 -20.6 -14 -25.6 64 64 N 10 17 30.59 1036 10 16 0.00 0.00
1:55 am 01:55 Partly Cloudy -2 -18.9 -12 -24.4 62 62 NNE 15 24 30.60 1036 10 16 0.00 0.00
2:55 am 02:55 Mostly Cloudy -3 -19.4 -13 -25 61 61 N 17 28 30.59 1036 10 16 0.00 0.00
3:55 am 03:55 Mostly Cloudy -3 -19.4 -14 -25.6 58 58 NNE 13 20 30.59 1036 10 16 0.00 0.00
4:55 am 04:55 Cloudy -3 -19.4 -15 -26.1 56 56 N 16 26 30.62 1037 10 16 0.00 0.00
5:55 am 05:55 Cloudy -3 -19.4 -15 -26.1 56 56 N 16 26 30.63 1037 10 16 0.00 0.00
6:55 am 06:55 Cloudy -3 -19.4 -15 -26.1 56 56 N 14 22 30.64 1038 10 16 0.00 0.00
7:55 am 07:55 Cloudy -3 -19.4 -14 -25.6 58 58 N 16 26 30.66 1038 10 16 0.00 0.00
8:55 am 08:55 Cloudy -2 -18.9 -14 -25.6 56 56 N 14 22 30.67 1039 10 16 0.00 0.00
9:55 am 09:55 Mostly Cloudy -2 -18.9 -14 -25.6 56 56 N 14 22 30.68 1039 10 16 0.00 0.00
10:55 am 10:55 Cloudy -2 -18.9 -13 -25 59 59 N 13 20 30.70 1040 10 16 0.00 0.00
11:37 am 11:37 Cloudy with Light Snow -3 -19.4 -13 -25 61 61 N 16 26 30.73 1040 2 3 0.00 0.00
11:44 am 11:44 Cloudy with Light Snow -2 -19 -11 -24 65 65 N 15 24 30.71 1040 1 2 0.00 0.00
11:51 am 11:51 Cloudy with Light Snow -2 -19 -11 -24 65 65 NNE 16 26 30.71 1040 1 1 0.00 0.00
11:55 am 11:55 Cloudy with Snow -3 -19.4 -11 -23.9 68 68 N 17 28 30.67 1039 1 1 0.00 0.00
12:03 pm 12:03 Mostly Cloudy with Snow -3 -19.4 -11 -23.9 68 68 N 15 24 30.72 1040 1 1 0.01 0.25
12:34 pm 12:34 Mostly Cloudy with Light Snow -3 -19.4 -10 -23.3 71 71 N 12 19 30.71 1040 1 1 0.02 0.51
12:48 pm 12:48 Cloudy with Light Snow -2 -19 -11 -24 65 65 N 14 22 30.69 1039 1 2 0.00 0.00
12:55 pm 12:55 Cloudy with Light Snow -3 -19.4 -11 -23.9 68 68 N 13 20 30.65 1038 1 2 0.02 0.51
1:36 pm 13:36 Cloudy with Haze -3 -19.4 -12 -24.4 65 65 N 14 22 30.68 1039 2 3 0.01 0.25
1:44 pm 13:44 Cloudy with Haze -2 -19 -11 -24 65 65 N 17 28 30.67 1039 3 4 0.00 0.00
1:51 pm 13:51 Cloudy with Haze -2 -19 -11 -24 65 65 N 17 28 30.66 1038 3 4 0.01 0.25
1:55 pm 13:55 Cloudy with Haze -3 -19.4 -12 -24.4 65 65 N 14 22 30.62 1037 2 3 0.01 0.25
2:00 pm 14:00 Cloudy with Haze -4 -20 -12 -24.4 68 68 N 16 26 30.67 1039 2 3 0.00 0.00
2:55 pm 14:55 Cloudy with Haze -3 -19.4 -12 -24.4 65 65 N 14 22 30.62 1037 2 3 0.00 0.00
3:39 pm 15:39 Cloudy with Haze -3 -19.4 -12 -24.4 65 65 NNE 15 24 30.68 1039 2 3 0.00 0.00
3:53 pm 15:53 Cloudy with Haze -2 -19 -11 -24 65 65 N 14 22 30.67 1039 3 5 0.00 0.00
3:55 pm 15:55 Cloudy with Haze -3 -19.4 -12 -24.4 65 65 N 13 20 30.63 1037 3 5 0.00 0.00
4:33 pm 16:33 Mostly Cloudy -4 -20 -13 -25 65 65 N 14 22 30.68 1039 10 16 0.00 0.00
4:55 pm 16:55 Cloudy -4 -20 -12 -24.4 68 68 N 9 15 30.63 1037 8 13 0.00 0.00
5:55 pm 17:55 Cloudy -5 -20.6 -14 -25.6 64 64 N 15 24 30.63 1037 10 16 0.00 0.00
6:55 pm 18:55 Cloudy with Haze -5 -20.6 -14 -25.6 64 64 N 14 22 30.64 1038 4 6 0.00 0.00
7:13 pm 19:13 Cloudy with Light Snow -5 -20.6 -14 -25.6 64 64 N 14 22 30.69 1039 3 4 0.00 0.00
7:51 pm 19:51 Cloudy with Haze -6 -21 -15 -26 64 64 N 14 22 30.69 1039 3 5 0.00 0.00
7:55 pm 19:55 Cloudy with Haze -6 -21.1 -14 -25.6 67 67 N 16 26 30.64 1038 4 6 0.00 0.00
8:55 pm 20:55 Cloudy -6 -21.1 -14 -25.6 67 67 N 17 28 30.63 1037 10 16 0.00 0.00
9:55 pm 21:55 Cloudy -6 -21.1 -15 -26.1 64 64 N 14 22 30.62 1037 9 14 0.00 0.00
10:55 pm 22:55 Cloudy with Light Snow -7 -21.7 -15 -26.1 68 68 N 16 26 30.61 1037 2 3 0.00 0.00
11:55 pm 23:55 Cloudy with Light Snow -7 -21.7 -14 -25.6 71 71 N 16 26 30.61 1037 2 3 0.01 0.25

Powered by Vaisala Xweather